Tracking 19562 objects as of 24-Mar-2019
HD Live streaming from Space Station
objects crossing your sky now

IRIDIUM 148

Track IRIDIUM 148 now!
10-day predictions
IRIDIUM 148 is classified as:


NORAD ID: 43255
Int'l Code: 2018-030I
Perigee: 783.2 km
Apogee: 786.4 km
Inclination: 86.4 °
Period: 100.4 minutes
Semi major axis: 7155 km
RCS: Unknown
Launch date: March 30, 2018
Source: United States (US)
Launch site: AIR FORCE WESTERN TEST RANGE (AFWTR)
aabbcc
Your satellite tracking list
Your tracking list is empty




NASA's NSSDC Master Catalog

Two Line Element Set (TLE):
1 43255U 18030G   19083.56613049  .00000063  00000-0  15531-4 0  9994
2 43255  86.3959 314.3754 0002236  94.9947 265.1504 14.34216920 51554
Source of the keplerian elements: AFSPC